When you browse on this site, cookies collect data to enhance your experience and personalize the content and advertising you see.
Visit our Privacy Policy to learn more. By continuing to use the site, you agree to this use of cookies and data.

Stündliche Wetter Oyem

Heute, 4 August, Dienstag

Zeit Temperatur Niederschläge Wind Luftdruck Luftfeuchtigkeit
00:00 +22°C° 0 mm 1 m/S 706 mmHg 91%
01:00 +22°C° 0 mm 1 m/S 706 mmHg 95%
02:00 +21°C° 0 mm 1 m/S 706 mmHg 95%
03:00 +21°C° 0 mm 1 m/S 706 mmHg 96%
04:00 +20°C° 0 mm 1 m/S 705 mmHg 96%
05:00 +20°C° 0 mm 1 m/S 706 mmHg 95%
06:00 +20°C° 0 mm 1 m/S 706 mmHg 94%
07:00 +21°C° 0 mm 1 m/S 706 mmHg 92%
08:00 +23°C° 0 mm 1 m/S 707 mmHg 83%
09:00 +25°C° 0 mm 1 m/S 707 mmHg 73%
10:00 +27°C° 0 mm 2 m/S 707 mmHg 64%
11:00 +28°C° 0 mm 2 m/S 707 mmHg 62%
12:00 +28°C° 0 mm 2 m/S 706 mmHg 59%
13:00 +29°C° 0 mm 2 m/S 706 mmHg 57%
14:00 +28°C° 0.8 mm 2 m/S 705 mmHg 63%
15:00 +28°C° 0.8 mm 2 m/S 704 mmHg 69%
16:00 +27°C° 0.8 mm 2 m/S 704 mmHg 75%
17:00 +26°C° 1.5 mm 2 m/S 704 mmHg 80%
18:00 +24°C° 1.5 mm 2 m/S 704 mmHg 86%
19:00 +23°C° 1.5 mm 2 m/S 704 mmHg 92%
20:00 +21°C° 0.1 mm 2 m/S 705 mmHg 93%
21:00 +21°C° 0.1 mm 2 m/S 705 mmHg 95%
22:00 +20°C° 0.1 mm 2 m/S 706 mmHg 96%
23:00 +21°C° 0 mm 1 m/S 706 mmHg 97%

Morgen, 5 August, Mittwoch

Zeit Temperatur Niederschläge Wind Luftdruck Luftfeuchtigkeit
00:00 +21°C° 0 mm 1 m/S 706 mmHg 97%
01:00 +20°C° 0 mm 1 m/S 705 mmHg 98%
02:00 +20°C° 0 mm 1 m/S 705 mmHg 98%
03:00 +20°C° 0 mm 1 m/S 705 mmHg 98%
04:00 +20°C° 0 mm 1 m/S 705 mmHg 98%
05:00 +20°C° 0 mm 1 m/S 705 mmHg 98%
06:00 +20°C° 0 mm 1 m/S 705 mmHg 97%
07:00 +20°C° 0 mm 1 m/S 706 mmHg 97%
08:00 +22°C° 0 mm 1 m/S 706 mmHg 90%
09:00 +23°C° 0 mm 1 m/S 707 mmHg 83%
10:00 +25°C° 0 mm 1 m/S 707 mmHg 75%
11:00 +26°C° 0 mm 1 m/S 707 mmHg 68%
12:00 +28°C° 0 mm 2 m/S 707 mmHg 60%
13:00 +30°C° 0 mm 2 m/S 706 mmHg 52%
14:00 +29°C° 0.5 mm 2 m/S 705 mmHg 59%
15:00 +28°C° 0.5 mm 2 m/S 704 mmHg 67%
16:00 +27°C° 0.5 mm 2 m/S 703 mmHg 74%
17:00 +26°C° 0.5 mm 2 m/S 704 mmHg 81%
18:00 +24°C° 0.5 mm 1 m/S 704 mmHg 88%
19:00 +22°C° 0.5 mm 1 m/S 704 mmHg 95%
20:00 +22°C° 0 mm 1 m/S 704 mmHg 96%
21:00 +22°C° 0 mm 1 m/S 705 mmHg 96%
22:00 +21°C° 0 mm 1 m/S 706 mmHg 97%
23:00 +21°C° 0 mm 1 m/S 706 mmHg 98%

übermorgen, 6 August, Donnerstag

Zeit Temperatur Niederschläge Wind Luftdruck Luftfeuchtigkeit
00:00 +21°C° 0 mm 1 m/S 706 mmHg 98%
01:00 +20°C° 0 mm 1 m/S 706 mmHg 98%
02:00 +20°C° 0 mm 1 m/S 705 mmHg 98%
03:00 +20°C° 0 mm 1 m/S 705 mmHg 98%
04:00 +20°C° 0 mm 1 m/S 705 mmHg 98%
05:00 +20°C° 0 mm 1 m/S 705 mmHg 98%
06:00 +20°C° 0 mm 1 m/S 705 mmHg 98%
07:00 +20°C° 0 mm 1 m/S 705 mmHg 97%
08:00 +21°C° 0 mm 1 m/S 706 mmHg 91%
09:00 +22°C° 0 mm 1 m/S 706 mmHg 86%
10:00 +23°C° 0 mm 1 m/S 706 mmHg 80%
11:00 +25°C° 0 mm 2 m/S 706 mmHg 69%
12:00 +27°C° 0 mm 2 m/S 706 mmHg 59%
13:00 +30°C° 0 mm 2 m/S 706 mmHg 48%
14:00 +29°C° 0 mm 2 m/S 705 mmHg 50%
15:00 +29°C° 0 mm 2 m/S 704 mmHg 51%
16:00 +29°C° 0 mm 2 m/S 704 mmHg 52%
17:00 +27°C° 0.2 mm 2 m/S 704 mmHg 63%
18:00 +25°C° 0.2 mm 2 m/S 704 mmHg 73%
19:00 +23°C° 0.2 mm 2 m/S 704 mmHg 84%
20:00 +21°C° 0 mm 2 m/S 705 mmHg 86%
21:00 +22°C° 0 mm 1 m/S 705 mmHg 88%
22:00 +21°C° 0 mm 1 m/S 706 mmHg 90%
23:00 +21°C° 0 mm 1 m/S 706 mmHg 91%

7 August, Freitag

Zeit Temperatur Niederschläge Wind Luftdruck Luftfeuchtigkeit
00:00 +20°C° 0 mm 1 m/S 706 mmHg 92%
01:00 +20°C° 0 mm 1 m/S 706 mmHg 93%
02:00 +19°C° 0 mm 1 m/S 706 mmHg 94%
03:00 +19°C° 0 mm 1 m/S 705 mmHg 95%
04:00 +19°C° 0 mm 1 m/S 705 mmHg 96%
05:00 +19°C° 0 mm 1 m/S 705 mmHg 95%
06:00 +20°C° 0 mm 1 m/S 706 mmHg 93%
07:00 +20°C° 0 mm 1 m/S 706 mmHg 92%
08:00 +21°C° 0 mm 1 m/S 707 mmHg 87%
09:00 +22°C° 0 mm 1 m/S 707 mmHg 82%
10:00 +23°C° 0 mm 1 m/S 707 mmHg 76%
11:00 +25°C° 0 mm 1 m/S 707 mmHg 68%
12:00 +27°C° 0 mm 1 m/S 707 mmHg 60%
13:00 +29°C° 0 mm 1 m/S 706 mmHg 51%
14:00 +29°C° 0 mm 1 m/S 706 mmHg 51%
15:00 +29°C° 0 mm 1 m/S 705 mmHg 50%
16:00 +30°C° 0 mm 1 m/S 705 mmHg 50%
17:00 +28°C° 0 mm 1 m/S 705 mmHg 60%
18:00 +26°C° 0 mm 1 m/S 705 mmHg 69%
19:00 +24°C° 0 mm 1 m/S 705 mmHg 78%
20:00 +23°C° 0 mm 1 m/S 705 mmHg 82%
21:00 +22°C° 0 mm 1 m/S 706 mmHg 86%
22:00 +22°C° 0 mm 1 m/S 706 mmHg 89%
23:00 +21°C° 0 mm 1 m/S 706 mmHg 91%

8 August, Samstag

Zeit Temperatur Niederschläge Wind Luftdruck Luftfeuchtigkeit
00:00 +21°C° 0 mm 1 m/S 706 mmHg 94%
01:00 +20°C° 0 mm 1 m/S 706 mmHg 96%
02:00 +20°C° 0 mm 1 m/S 706 mmHg 96%
03:00 +19°C° 0 mm 1 m/S 706 mmHg 96%
04:00 +19°C° 0 mm 1 m/S 705 mmHg 97%
05:00 +19°C° 0 mm 1 m/S 706 mmHg 94%
06:00 +20°C° 0 mm 1 m/S 706 mmHg 92%
07:00 +20°C° 0 mm 1 m/S 706 mmHg 89%
08:00 +21°C° 0 mm 1 m/S 707 mmHg 83%
09:00 +23°C° 0 mm 1 m/S 707 mmHg 77%
10:00 +24°C° 0 mm 1 m/S 708 mmHg 71%
11:00 +26°C° 0 mm 1 m/S 708 mmHg 63%
12:00 +28°C° 0 mm 2 m/S 707 mmHg 56%
13:00 +30°C° 0 mm 2 m/S 707 mmHg 49%
14:00 +29°C° 0 mm 2 m/S 706 mmHg 50%
15:00 +29°C° 0 mm 2 m/S 705 mmHg 52%
16:00 +29°C° 0 mm 2 m/S 704 mmHg 54%
17:00 +27°C° 0 mm 2 m/S 704 mmHg 62%
18:00 +25°C° 0 mm 1 m/S 705 mmHg 71%
19:00 +23°C° 0 mm 1 m/S 705 mmHg 79%
20:00 +23°C° 0 mm 1 m/S 705 mmHg 82%
21:00 +22°C° 0 mm 1 m/S 706 mmHg 84%
22:00 +21°C° 0 mm 1 m/S 706 mmHg 87%
23:00 +21°C° 0 mm 1 m/S 706 mmHg 88%

9 August, Sonntag

Zeit Temperatur Niederschläge Wind Luftdruck Luftfeuchtigkeit
00:00 +20°C° 0 mm 1 m/S 706 mmHg 90%
01:00 +20°C° 0 mm 1 m/S 705 mmHg 91%
02:00 +19°C° 0 mm 1 m/S 705 mmHg 92%
03:00 +19°C° 0 mm 1 m/S 705 mmHg 94%
04:00 +19°C° 0 mm 1 m/S 705 mmHg 95%
05:00 +19°C° 0 mm 1 m/S 705 mmHg 94%
06:00 +19°C° 0 mm 2 m/S 705 mmHg 93%
07:00 +19°C° 0 mm 2 m/S 705 mmHg 92%
08:00 +20°C° 0 mm 2 m/S 706 mmHg 85%
09:00 +21°C° 0 mm 2 m/S 706 mmHg 79%
10:00 +24°C° 0 mm 2 m/S 707 mmHg 73%
11:00 +26°C° 0 mm 2 m/S 706 mmHg 65%
12:00 +27°C° 0 mm 2 m/S 706 mmHg 58%
13:00 +29°C° 0 mm 2 m/S 706 mmHg 51%
14:00 +29°C° 0 mm 2 m/S 705 mmHg 53%
15:00 +29°C° 0 mm 2 m/S 704 mmHg 54%
16:00 +29°C° 0 mm 2 m/S 704 mmHg 56%
17:00 +27°C° 0.2 mm 2 m/S 704 mmHg 66%
18:00 +25°C° 0.2 mm 1 m/S 704 mmHg 76%
19:00 +23°C° 0.2 mm 1 m/S 704 mmHg 87%
20:00 +22°C° 0 mm 1 m/S 704 mmHg 89%
21:00 +22°C° 0 mm 1 m/S 705 mmHg 91%
22:00 +21°C° 0 mm 1 m/S 705 mmHg 93%
23:00 +21°C° 0 mm 1 m/S 705 mmHg 95%
Mehr zeigen